This demonstration page uses our WeatherBlox Daily Observations layout. Learn more.

Left ArrowRight Arrow

Hourly Observations for December 21, 2021

Temp ( °F °C ) Dew Point ( °F °C ) Humidity (%) Winds ( mph kmh ) Pressure ( in mb ) Visibility ( mi km ) Precip ( " mm )
12:51 am 00:51 Clear 35 1.7 20 -6.7 54 54 SE 6 9 30.18 1022 10 16 0.00 0.00
1:51 am 01:51 Clear 36 2.2 21 -6.1 55 55 E 3 6 30.16 1021 10 16 0.00 0.00
2:51 am 02:51 Clear 36 2.2 22 -5.6 57 57 SSE 5 7 30.17 1022 10 16 0.00 0.00
3:51 am 03:51 Clear 32 0 19 -7.2 59 59 ESE 6 9 30.17 1022 10 16 0.00 0.00
4:51 am 04:51 Clear 37 2.8 21 -6.1 52 52 SSE 5 7 30.18 1022 10 16 0.00 0.00
5:51 am 05:51 Clear 35 1.7 20 -6.7 54 54 ESE 3 6 30.20 1023 10 16 0.00 0.00
6:51 am 06:51 Clear 35 1.7 21 -6.1 57 57 ESE 7 11 30.21 1023 10 16 0.00 0.00
7:51 am 07:51 Sunny 34 1.1 20 -6.7 56 56 ENE 5 7 30.22 1024 10 16 0.00 0.00
8:51 am 08:51 Sunny 41 5 22 -5.6 47 47 ESE 6 9 30.23 1024 10 16 0.00 0.00
9:51 am 09:51 Sunny 46 7.8 23 -5 40 40 Calm 30.23 1024 10 16 0.00 0.00
10:51 am 10:51 Sunny 52 11.1 24 -4.4 34 34 S 5 7 30.21 1023 10 16 0.00 0.00
11:51 am 11:51 Sunny 54 12.2 24 -4.4 31 31 SW 6 9 30.17 1022 10 16 0.00 0.00
12:51 pm 12:51 Sunny 56 13.3 24 -4.4 29 29 Calm 30.14 1021 10 16 0.00 0.00
1:51 pm 13:51 Sunny 59 15 24 -4.4 26 26 Calm 30.11 1020 10 16 0.00 0.00
2:51 pm 14:51 Sunny 60 15.6 23 -5 24 24 Calm 30.09 1019 10 16 0.00 0.00
3:51 pm 15:51 Sunny 60 15.6 23 -5 24 24 Calm 30.09 1019 10 16 0.00 0.00
4:51 pm 16:51 Sunny 58 14.4 25 -3.9 28 28 WNW 6 9 30.09 1019 10 16 0.00 0.00
5:51 pm 17:51 Clear 54 12.2 26 -3.3 34 34 NW 6 9 30.10 1019 10 16 0.00 0.00
6:51 pm 18:51 Clear 50 10 25 -3.9 38 38 NW 5 7 30.12 1020 10 16 0.00 0.00
7:51 pm 19:51 Clear 48 8.9 28 -2.2 46 46 NW 3 6 30.13 1020 10 16 0.00 0.00
8:51 pm 20:51 Clear 47 8.3 26 -3.3 44 44 Calm 30.12 1020 10 16 0.00 0.00
9:51 pm 21:51 Clear 47 8.3 27 -2.8 46 46 WNW 5 7 30.14 1021 10 16 0.00 0.00
10:51 pm 22:51 Clear 47 8.3 27 -2.8 46 46 Calm 30.11 1020 10 16 0.00 0.00
11:51 pm 23:51 Clear 42 5.6 24 -4.4 49 49 Calm 30.11 1020 10 16 0.00 0.00

Powered by AerisWeather